BTO5107 SGME-SGAS

Flight info

Callsign BTO5107
Flight time N/A
Altitude 3500
Route D
Aircraft C147/L-VGDW/C

Departure

Time N/A
Airport Dr. Luis María Argaña International Airport (SGME)

Arrival

Time 2026-04-25 21:23
Airport Silvio Pettirossi International Airport (SGAS)
Time Latitude Longitude Altitude Speed Heading
2026-04-25 21:09 -24.92469 -57.66344 3495 ft 131 kts 139°
2026-04-25 21:09 -24.93135 -57.65634 3495 ft 131 kts 139°
2026-04-25 21:09 -24.93793 -57.64933 3495 ft 131 kts 139°
2026-04-25 21:10 -24.94447 -57.64236 3495 ft 131 kts 139°
2026-04-25 21:10 -24.95106 -57.63534 3495 ft 131 kts 139°
2026-04-25 21:10 -24.95766 -57.62830 3495 ft 131 kts 139°
2026-04-25 21:10 -24.96417 -57.62136 3495 ft 131 kts 139°
2026-04-25 21:11 -24.97073 -57.61437 3495 ft 131 kts 139°
2026-04-25 21:11 -24.97730 -57.60735 3427 ft 130 kts 139°
2026-04-25 21:11 -24.98369 -57.60055 3299 ft 126 kts 139°
2026-04-25 21:11 -24.99002 -57.59383 3171 ft 128 kts 134°
2026-04-25 21:12 -24.99635 -57.58701 3078 ft 122 kts 129°
2026-04-25 21:12 -25.00129 -57.57966 3047 ft 118 kts 123°
2026-04-25 21:12 -25.00581 -57.57222 3018 ft 117 kts 122°
2026-04-25 21:12 -25.00877 -57.56722 3000 ft 117 kts 122°
2026-04-25 21:13 -25.01474 -57.55701 2963 ft 121 kts 122°
2026-04-25 21:13 -25.01937 -57.54905 2902 ft 123 kts 122°
2026-04-25 21:13 -25.02405 -57.54100 2810 ft 124 kts 122°
2026-04-25 21:13 -25.02869 -57.53301 2699 ft 126 kts 122°
2026-04-25 21:14 -25.03352 -57.52470 2572 ft 127 kts 122°
2026-04-25 21:14 -25.03807 -57.51687 2445 ft 119 kts 122°
2026-04-25 21:14 -25.04244 -57.50934 2324 ft 114 kts 122°
2026-04-25 21:14 -25.04670 -57.50198 2205 ft 112 kts 122°
2026-04-25 21:15 -25.05087 -57.49480 2088 ft 110 kts 122°
2026-04-25 21:15 -25.05498 -57.48769 1984 ft 108 kts 122°
2026-04-25 21:15 -25.06012 -57.48234 1942 ft 103 kts 150°
2026-04-25 21:15 -25.06613 -57.47865 1928 ft 94 kts 149°
2026-04-25 21:16 -25.07212 -57.47720 1899 ft 86 kts 184°
2026-04-25 21:16 -25.07770 -57.47871 1891 ft 80 kts 192°
2026-04-25 21:16 -25.08293 -57.48037 1892 ft 78 kts 191°
2026-04-25 21:16 -25.08819 -57.48193 1893 ft 77 kts 190°
2026-04-25 21:17 -25.09335 -57.48336 1893 ft 77 kts 189°
2026-04-25 21:17 -25.09858 -57.48474 1893 ft 77 kts 189°
2026-04-25 21:17 -25.10380 -57.48608 1894 ft 77 kts 188°
2026-04-25 21:17 -25.10900 -57.48739 1894 ft 77 kts 188°
2026-04-25 21:18 -25.11421 -57.48868 1894 ft 77 kts 188°
2026-04-25 21:18 -25.11950 -57.48998 1894 ft 77 kts 188°
2026-04-25 21:18 -25.12468 -57.49124 1894 ft 77 kts 188°
2026-04-25 21:18 -25.12993 -57.49252 1894 ft 77 kts 188°
2026-04-25 21:19 -25.13513 -57.49378 1894 ft 77 kts 188°
2026-04-25 21:19 -25.14040 -57.49506 1894 ft 77 kts 188°
2026-04-25 21:19 -25.14566 -57.49633 1869 ft 80 kts 188°
2026-04-25 21:19 -25.15127 -57.49769 1780 ft 84 kts 189°
2026-04-25 21:20 -25.15702 -57.49911 1678 ft 86 kts 189°
2026-04-25 21:20 -25.16096 -57.50007 1605 ft 87 kts 189°
2026-04-25 21:20 -25.16885 -57.50200 1454 ft 87 kts 189°
2026-04-25 21:20 -25.17479 -57.50344 1338 ft 88 kts 189°
2026-04-25 21:21 -25.18077 -57.50489 1220 ft 87 kts 189°
2026-04-25 21:21 -25.18664 -57.50631 1104 ft 87 kts 189°
2026-04-25 21:21 -25.19262 -57.50776 985 ft 87 kts 189°
2026-04-25 21:21 -25.19850 -57.50918 866 ft 87 kts 189°
2026-04-25 21:22 -25.20444 -57.51062 750 ft 87 kts 189°
2026-04-25 21:22 -25.21032 -57.51204 635 ft 86 kts 189°
2026-04-25 21:22 -25.21620 -57.51346 519 ft 86 kts 189°
2026-04-25 21:22 -25.22187 -57.51470 468 ft 77 kts 191°
2026-04-25 21:23 -25.22642 -57.51590 324 ft 55 kts 188°
2026-04-25 21:23 -25.22918 -57.51626 295 ft 22 kts 164°
2026-04-25 21:23 -25.22961 -57.51610 295 ft 0 kts 144°
2026-04-25 21:24 -25.23044 -57.51599 295 ft 9 kts 149°
2026-04-25 21:24 -25.23114 -57.51504 295 ft 20 kts 153°
2026-04-25 21:25 -25.23375 -57.51543 295 ft 43 kts 193°
2026-04-25 21:25 -25.23591 -57.51601 295 ft 28 kts 186°
2026-04-25 21:25 -25.23806 -57.51643 295 ft 31 kts 192°
2026-04-25 21:25 -25.23967 -57.51668 295 ft 18 kts 160°
2026-04-25 21:26 -25.24076 -57.51593 295 ft 15 kts 152°
2026-04-25 21:26 -25.24120 -57.51532 295 ft 6 kts 109°
2026-04-25 21:26 -25.24130 -57.51501 295 ft 1 kts 109°
2026-04-25 21:26 -25.24132 -57.51496 295 ft 0 kts 108°